Portada
METAR-TAF:

METAR-TAF

Aeroports :

Illinois Valley Regional Airport (Walter A. Duncan Field)

Peru-LaSalle, Illinois, Estats Units d'Amèrica

latitud: 41-21-07N, longitud: 089-09-11W, altitud: 199 m

Observació

L'informe es va fer fa 10 minuts, a les 00:55 UTC
Vent 18 kt del Nord amb ràfegues de 22 kt
Temperatura -8°C
Humitat 73%
Pressió 1019 hPa
Visibilitat: 16.1 km
Cel cobert a una alçada de 2300 ft

METAR: KVYS 200055Z AUTO 36018G22KT 10SM OVC023 M08/M12 A3008 RMK AO2 T10851120

Hora: 19:05 (01:05 UTC)


TAF: manca

Observacions i pronòstics meteorològics de més de 4000 aeroports (METAR i TAF).

Les estacions disponibles són els punts grocs i vermells al mapa.

Posi el ratolí al punt desitjat per veure el nom de l'estació.

Feu clic per veure les observacions i els pronòstics meteorològics.

Per canviar el mapa: feu clic els botons verds amb una creu de color negre per apropar; al botó verd amb un guió per allunyar la imatge; o en les fletxes verdes per a mapes adjacents.


METAR-TAF: